Wind_Speed
17 18 18 17 18 16 15 17 17 17 17 17 17 16 16 14 13 13 13 12 12 11 10 10 10 10 11 11 11 12 12 12 12 12 12 12 12 12 13 13 13 13 13 12 12 11 10 10 10
17 17 17 17 17 14 16 17 17 17 17 17 17 17 15 14 14 13 12 12 11 10 9 9 10 10 10 11 11 11 10 11 11 11 12 12 12 12 11 12 12 12 12 13 12 11 11 11 10
16 17 16 16 14 14 15 16 16 17 17 17 17 16 15 14 14 13 12 11 11 10 9 9 9 9 9 9 9 10 10 10 11 11 11 10 11 11 10 10 11 11 11 11 11 10 10 9 9
16 17 16 15 13 14 14 15 16 17 17 17 16 16 15 14 14 12 12 11 10 9 8 8 8 8 9 9 8 9 10 10 11 11 10 10 10 11 10 10 10 10 10 10 10 9 9 8 8
15 16 16 14 13 13 14 14 16 16 16 16 16 16 16 15 14 12 12 11 10 9 7 7 7 7 8 9 9 8 9 9 9 10 10 10 9 9 9 9 10 10 10 10 9 9 9 8 8
16 16 13 13 13 13 13 14 15 16 16 15 15 15 15 15 14 13 12 12 10 9 8 7 7 7 7 8 8 8 8 8 8 8 8 9 8 9 9 9 9 10 9 9 8 8 8 7 7
14 14 13 12 12 13 13 14 15 15 16 16 16 15 15 15 14 13 13 12 11 9 8 8 7 7 7 7 7 7 7 7 7 7 7 8 9 9 9 9 8 8 8 8 8 7 7 7 6
13 13 12 12 12 13 13 14 15 15 16 16 16 16 15 15 14 13 12 12 10 9 9 8 8 7 7 7 7 6 6 6 6 7 7 7 8 8 8 8 7 7 7 7 7 7 7 6 6
11 11 10 11 12 12 12 13 14 14 15 15 15 16 15 14 13 12 12 11 10 9 8 8 8 7 7 6 6 6 6 6 6 6 6 6 7 7 7 7 7 6 6 6 7 7 6 6 5
9 8 8 10 11 12 12 13 13 13 14 14 15 15 14 13 13 12 11 10 10 9 8 8 8 7 7 6 6 6 5 5 5 5 5 5 6 6 6 6 6 6 6 6 6 6 6 5 5
7 7 7 8 9 10 11 12 12 12 14 14 14 14 13 13 12 12 11 9 9 9 8 8 8 7 6 6 6 5 5 5 5 5 5 5 5 5 6 6 6 6 6 6 6 6 6 6 5
4 5 5 6 7 8 9 10 11 12 13 13 13 14 14 13 13 12 11 10 9 8 8 8 7 7 7 7 6 6 5 5 4 4 4 5 5 5 5 5 5 5 5 5 5 5 5 5 4
2 2 3 4 5 6 7 8 9 10 12 13 13 13 14 13 12 12 11 10 9 8 8 8 8 8 8 8 7 6 5 4 3 3 3 4 4 4 4 5 4 4 4 4 4 3 3 3 3
3 1 1 2 3 4 6 7 7 9 10 12 12 12 13 13 11 11 10 10 9 8 8 8 8 8 8 8 8 7 6 5 3 3 3 3 3 4 4 4 4 3 3 3 3 2 2 2 2
4 3 2 0 1 2 4 5 6 7 9 10 11 11 11 12 11 10 10 10 9 9 8 8 8 8 8 7 7 7 7 6 4 3 3 2 3 3 3 3 3 2 2 2 2 2 2 1 1
7 5 4 3 2 1 1 3 3 5 7 8 9 10 10 10 10 10 9 9 9 8 8 8 7 7 8 8 7 6 6 5 4 4 3 2 2 2 2 1 1 1 1 1 1 1 1 1 1
9 7 7 5 3 2 1 1 1 2 4 6 7 8 9 9 9 9 9 9 9 8 8 8 8 8 7 7 7 6 6 6 5 3 3 3 2 2 1 1 1 1 0 0 1 1 1 0 0
12 10 9 8 5 4 3 3 1 1 2 4 5 6 7 7 8 8 8 8 8 8 8 7 7 8 8 7 7 7 6 6 6 4 3 3 2 2 1 1 2 1 1 1 1 1 1 1 1
15 13 12 10 8 6 6 5 4 3 2 3 4 4 5 6 7 7 7 7 7 7 7 7 7 7 8 7 7 7 7 6 6 5 4 3 3 3 2 1 1 2 2 2 2 2 2 2 2
18 16 14 13 10 8 8 7 6 5 4 4 4 4 4 5 6 6 6 6 6 6 7 7 7 7 7 7 7 7 7 7 6 6 5 4 3 3 3 2 2 2 2 3 3 3 3 3 3
20 18 17 15 12 11 10 9 8 7 6 5 4 4 4 5 5 6 6 6 6 6 6 6 7 7 7 7 7 6 6 7 7 6 5 4 4 4 4 4 3 3 3 4 4 4 4 5 5
22 20 19 17 15 14 12 10 11 10 9 8 6 6 5 5 5 6 6 6 6 6 6 6 6 7 7 7 7 6 6 6 6 6 5 6 5 5 5 5 5 5 5 5 6 6 5 6 6
24 22 21 19 18 17 15 13 12 11 10 9 8 8 7 7 6 7 7 7 7 7 7 6 6 7 7 7 7 7 6 6 6 6 6 6 6 6 6 7 7 7 6 6 7 7 6 7 7
26 23 22 21 20 20 18 15 14 13 11 10 10 9 9 8 8 8 9 8 8 7 7 7 7 7 8 8 8 8 7 6 6 6 6 6 7 7 7 8 8 7 7 7 7 7 7 8 8
27 25 24 23 23 22 19 18 16 14 13 12 12 11 11 10 9 9 9 9 8 7 7 7 8 8 8 8 8 8 7 7 7 7 7 7 8 8 8 9 8 8 8 8 8 9 9 9 9
27 27 25 23 22 22 21 20 17 15 14 14 14 13 12 12 11 10 10 10 10 9 8 8 9 9 10 9 9 9 9 9 8 9 9 8 9 9 9 9 10 10 10 10 10 10 10 10 11
28 28 26 24 23 21 21 21 18 17 16 16 15 15 14 14 13 12 11 11 10 10 10 10 10 10 11 11 10 10 10 9 10 10 10 10 10 10 10 10 11 11 11 10 10 10 11 11 12
29 28 28 26 24 22 21 21 19 18 17 16 16 16 16 16 15 14 13 12 12 12 12 12 12 12 12 12 12 11 11 11 11 11 10 11 11 12 12 12 12 11 11 11 11 11 12 13 13
29 29 29 27 26 21 19 20 19 18 18 17 17 17 17 17 17 15 14 14 14 14 14 14 13 13 14 13 13 13 13 12 12 12 12 12 12 12 12 13 12 12 12 12 12 12 13 13 13
29 29 28 28 27 25 20 20 21 20 19 19 18 18 18 18 18 17 16 15 15 15 15 15 15 15 15 15 13 13 13 13 14 14 13 13 13 13 13 14 14 13 13 13 13 13 13 14 15
Wind_Direction
71 68 65 64 66 66 68 68 66 65 65 65 65 66 67 70 72 73 74 76 76 75 76 80 88 90 94 96 97 99 99 102 106 103 105 105 106 106 105 106 105 104 104 103 104 103 107 104 105
71 68 64 63 67 66 69 70 67 65 64 64 63 64 65 68 70 73 76 76 75 76 78 83 87 89 94 94 95 98 96 98 99 104 103 103 105 107 109 107 107 107 104 103 105 105 103 102 103
70 67 64 64 67 67 68 69 68 66 64 63 62 63 65 66 69 71 75 74 74 78 81 83 88 91 91 89 89 93 94 96 96 102 106 103 105 111 113 110 110 109 106 105 101 101 101 100 98
68 66 63 64 67 67 68 67 67 65 63 62 62 62 63 64 66 69 71 71 72 75 80 81 80 84 85 84 87 89 93 100 102 107 107 105 108 113 114 112 110 109 105 103 102 100 99 98 94
67 67 63 63 63 64 65 65 65 64 61 61 61 62 62 63 63 66 69 72 72 75 76 77 79 83 86 87 88 89 92 99 103 105 107 103 101 108 113 110 107 106 104 100 99 98 97 92 88
68 68 69 64 61 62 62 62 63 64 61 59 60 62 62 62 63 65 68 71 73 75 75 74 76 79 84 93 92 90 90 97 103 105 107 103 103 112 111 108 109 105 104 101 101 100 95 92 89
71 73 70 64 60 59 61 61 62 63 61 58 57 61 62 62 63 65 68 70 71 73 75 72 72 76 82 89 91 88 87 93 99 105 109 109 109 113 112 109 107 101 102 104 102 101 100 96 95
74 70 64 63 59 58 59 61 62 62 62 60 58 59 60 62 63 63 65 67 69 71 73 71 71 74 80 84 87 85 86 91 95 101 109 113 111 116 115 111 110 105 103 102 99 99 100 97 96
77 73 65 62 59 57 58 60 62 61 60 59 59 58 56 58 60 60 63 65 66 68 70 71 70 71 76 80 81 82 84 89 95 103 107 106 110 114 115 112 110 105 104 102 100 98 99 99 97
81 80 68 60 57 56 57 57 59 59 57 56 56 56 53 53 57 57 60 65 66 68 69 70 69 70 72 74 76 76 81 89 95 98 104 107 111 114 115 116 113 107 103 101 100 98 96 96 95
88 85 68 58 55 53 52 54 56 57 55 52 52 53 51 51 56 55 58 62 63 65 67 69 71 70 69 68 65 63 71 83 89 93 99 106 114 120 121 123 122 116 107 99 96 95 94 91 89
96 88 71 59 52 52 50 51 54 56 54 51 50 48 49 52 56 56 55 58 61 62 64 61 63 61 61 59 57 55 62 75 83 92 104 112 117 119 117 118 123 117 108 102 96 94 97 96 94
142 107 72 58 49 53 51 49 52 53 53 52 50 48 49 51 53 54 52 51 56 59 61 60 56 55 57 54 56 61 61 58 71 98 113 122 125 121 112 114 118 117 118 116 106 98 96 97 98
206 208 91 61 49 47 48 48 50 51 53 51 47 46 46 46 49 50 49 47 50 55 56 54 51 55 54 52 52 55 58 59 77 110 114 127 134 131 125 124 118 108 115 117 116 114 111 102 89
221 226 234 279 11 41 48 44 47 47 51 49 46 44 44 45 46 47 45 45 47 49 51 52 52 53 54 50 46 52 57 53 60 82 98 121 136 144 146 135 126 114 110 117 125 140 148 148 106
229 231 238 244 254 302 40 39 43 44 46 44 41 39 40 43 42 43 43 41 42 44 44 45 47 47 51 51 52 49 50 52 59 65 89 96 100 139 168 153 138 127 120 119 164 176 184 190 149
230 229 231 240 238 239 230 217 25 30 34 36 33 31 33 37 38 38 37 36 38 40 40 41 44 45 43 41 41 43 45 43 44 51 58 73 81 98 152 210 193 151 74 329 231 226 250 346 2
230 227 231 239 235 234 235 233 251 321 6 18 17 16 20 29 31 29 28 28 30 33 34 35 38 40 39 37 35 34 39 40 42 51 45 53 54 42 10 254 222 237 268 279 299 314 307 319 304
229 228 233 237 236 234 236 237 242 259 288 332 346 348 357 14 22 23 22 22 23 25 27 28 29 32 33 33 32 30 31 29 33 32 24 12 2 351 353 351 278 277 287 298 295 289 296 308 298
229 230 233 238 239 237 236 237 247 261 271 295 315 318 331 348 5 11 12 12 13 17 19 19 20 22 23 24 23 24 23 18 14 13 11 6 5 359 357 339 319 319 311 299 289 286 287 286 291
230 231 235 241 242 240 239 244 251 254 260 271 286 289 309 322 338 349 352 353 356 359 2 5 8 10 11 11 8 7 11 13 12 10 10 10 6 358 358 1 342 321 304 291 287 289 288 288 286
231 232 235 240 242 243 240 244 253 250 253 256 262 269 283 301 312 322 329 336 338 342 343 346 352 354 353 354 357 352 350 354 358 2 1 5 1 351 346 347 338 322 307 293 285 290 288 290 287
231 232 235 238 241 244 243 238 248 248 246 245 248 254 267 282 294 306 314 323 324 324 327 327 331 334 334 336 339 336 334 334 339 347 348 344 345 341 337 332 328 324 311 298 295 294 293 292 289
230 232 234 237 238 241 242 242 242 244 240 240 246 249 257 266 279 292 303 313 318 318 319 317 321 322 322 322 326 327 322 320 321 327 332 332 332 331 326 321 320 319 315 303 295 293 292 291 293
228 229 232 234 235 239 242 242 241 241 237 241 244 247 252 260 271 285 294 301 307 311 317 316 318 317 316 316 317 318 314 312 306 307 314 317 320 320 319 316 312 309 308 305 298 292 290 289 291
228 228 228 232 237 242 244 244 245 241 236 238 241 245 251 256 265 278 288 291 297 301 305 308 313 314 314 312 311 311 310 310 304 299 302 307 312 315 315 316 312 305 301 299 295 292 290 290 291
227 227 229 234 235 238 246 248 246 241 237 237 239 244 250 256 262 270 280 284 287 292 296 301 306 309 311 308 307 306 305 302 300 296 295 301 307 311 311 311 311 311 309 300 292 290 291 290 290
227 227 227 229 233 238 246 247 245 242 239 239 240 245 251 255 260 265 271 278 281 284 289 294 297 302 308 309 306 302 300 297 295 292 295 297 300 304 305 305 308 310 308 304 297 295 292 291 292
226 227 228 231 233 235 241 248 246 242 239 240 242 245 249 252 256 262 268 271 275 280 284 289 291 294 299 301 300 298 295 293 290 289 290 291 295 298 300 303 306 308 305 302 300 297 295 293 292
228 230 231 233 236 233 232 246 247 243 242 242 242 244 247 249 252 258 262 266 272 276 281 285 286 288 291 295 297 292 289 290 292 290 289 288 291 294 297 300 301 303 304 300 299 299 298 296 294
Height
5911 5910 5910 5910 5910 5909 5907 5906 5904 5902 5901 5899 5897 5896 5895 5895 5895 5896 5893 5891 5891 5890 5889 5889 5888 5887 5887 5886 5886 5886 5886 5885 5885 5885 5886 5886 5886 5886 5886 5886 5886 5887 5887 5887 5887 5887 5887 5888 5888
5914 5913 5913 5913 5913 5912 5910 5908 5906 5904 5903 5901 5899 5898 5897 5896 5896 5895 5893 5893 5893 5892 5891 5890 5890 5889 5889 5888 5888 5888 5888 5887 5887 5887 5887 5887 5887 5888 5888 5888 5888 5888 5888 5888 5889 5889 5889 5890 5890
5916 5915 5916 5916 5915 5914 5912 5910 5908 5906 5905 5903 5902 5900 5899 5898 5897 5896 5895 5895 5894 5894 5893 5892 5891 5891 5891 5890 5890 5889 5889 5889 5889 5889 5889 5889 5889 5889 5889 5890 5890 5890 5890 5890 5891 5891 5891 5892 5892
5918 5919 5919 5919 5917 5916 5914 5912 5910 5908 5907 5905 5904 5902 5901 5900 5899 5898 5897 5897 5896 5895 5895 5894 5893 5893 5892 5892 5891 5891 5891 5891 5891 5891 5891 5891 5891 5891 5891 5891 5891 5891 5892 5892 5892 5893 5893 5893 5893
5921 5921 5922 5921 5919 5918 5916 5914 5912 5910 5909 5907 5906 5904 5902 5901 5900 5900 5899 5898 5898 5897 5896 5896 5895 5894 5894 5893 5893 5893 5893 5892 5892 5892 5892 5892 5892 5892 5892 5893 5893 5893 5893 5894 5894 5894 5894 5894 5894
5924 5924 5925 5923 5922 5920 5918 5916 5914 5912 5911 5909 5908 5906 5904 5903 5902 5901 5900 5900 5899 5899 5898 5897 5897 5896 5895 5895 5894 5894 5894 5894 5894 5894 5894 5894 5894 5894 5894 5894 5894 5894 5895 5895 5895 5895 5895 5895 5896
5926 5927 5926 5925 5923 5922 5920 5918 5915 5914 5913 5911 5910 5908 5906 5905 5904 5903 5902 5901 5901 5900 5900 5899 5898 5897 5897 5896 5896 5896 5896 5895 5895 5895 5895 5895 5895 5895 5895 5895 5896 5896 5896 5896 5896 5896 5896 5897 5897
5927 5929 5928 5927 5925 5924 5922 5919 5918 5916 5914 5913 5912 5910 5908 5907 5906 5905 5904 5903 5903 5902 5901 5901 5900 5899 5898 5898 5897 5897 5897 5897 5897 5897 5897 5896 5896 5896 5897 5897 5897 5897 5898 5898 5898 5897 5898 5898 5898
5929 5932 5930 5928 5927 5925 5923 5921 5920 5918 5916 5915 5913 5912 5911 5909 5908 5907 5906 5905 5904 5904 5903 5902 5901 5900 5900 5899 5899 5898 5898 5898 5898 5898 5898 5898 5898 5898 5898 5898 5898 5899 5899 5899 5899 5899 5899 5899 5899
5930 5932 5931 5929 5928 5926 5925 5923 5922 5920 5918 5917 5915 5914 5912 5911 5910 5909 5908 5907 5906 5905 5904 5904 5903 5902 5901 5901 5900 5900 5899 5899 5899 5899 5899 5899 5899 5899 5899 5899 5899 5900 5900 5900 5900 5900 5900 5899 5900
5931 5931 5931 5930 5929 5927 5926 5925 5923 5922 5920 5919 5917 5916 5914 5912 5911 5910 5910 5909 5908 5907 5906 5905 5904 5903 5902 5902 5901 5900 5900 5900 5900 5900 5900 5900 5900 5900 5900 5900 5900 5900 5900 5901 5901 5901 5900 5900 5900
5931 5931 5931 5931 5930 5929 5928 5927 5925 5924 5923 5921 5919 5917 5915 5913 5913 5912 5911 5910 5909 5908 5907 5906 5905 5904 5904 5903 5902 5902 5901 5901 5901 5901 5901 5901 5901 5901 5901 5901 5901 5901 5901 5901 5901 5901 5901 5901 5901
5931 5931 5931 5931 5930 5930 5929 5928 5927 5925 5924 5922 5921 5919 5917 5916 5915 5914 5913 5912 5911 5910 5909 5908 5907 5906 5905 5904 5903 5903 5902 5902 5901 5901 5901 5901 5901 5902 5902 5902 5902 5902 5902 5902 5902 5902 5902 5902 5901
5931 5931 5931 5931 5931 5930 5930 5929 5928 5926 5925 5924 5922 5921 5919 5918 5917 5916 5915 5913 5912 5911 5910 5909 5908 5907 5906 5905 5905 5904 5903 5902 5902 5901 5901 5902 5902 5902 5902 5903 5903 5903 5903 5903 5903 5902 5902 5902 5902
5930 5931 5931 5931 5931 5931 5931 5930 5929 5928 5926 5925 5924 5923 5921 5920 5919 5918 5916 5915 5914 5913 5912 5910 5909 5908 5907 5906 5905 5905 5904 5903 5903 5902 5902 5902 5902 5903 5903 5903 5903 5903 5903 5903 5903 5903 5903 5903 5902
5929 5930 5931 5931 5931 5931 5932 5932 5930 5929 5928 5926 5925 5924 5923 5922 5920 5919 5918 5917 5915 5914 5913 5912 5911 5910 5909 5908 5907 5906 5905 5904 5904 5903 5903 5903 5903 5903 5903 5904 5903 5903 5903 5903 5903 5903 5903 5903 5903
5927 5929 5930 5931 5931 5931 5932 5932 5930 5929 5928 5927 5926 5925 5924 5923 5922 5921 5919 5918 5917 5916 5914 5913 5912 5911 5910 5909 5908 5907 5906 5905 5905 5904 5904 5903 5903 5903 5903 5904 5903 5903 5903 5903 5903 5903 5903 5903 5902
5926 5928 5929 5929 5930 5930 5931 5931 5930 5929 5928 5928 5927 5926 5925 5924 5923 5922 5920 5919 5918 5917 5916 5915 5914 5912 5911 5910 5909 5908 5907 5906 5906 5905 5905 5904 5904 5903 5903 5903 5903 5903 5903 5903 5903 5902 5902 5902 5902
5923 5925 5927 5927 5928 5929 5929 5930 5930 5929 5928 5928 5927 5926 5925 5925 5924 5922 5921 5920 5919 5918 5917 5916 5915 5913 5912 5911 5910 5909 5908 5907 5907 5906 5905 5905 5904 5904 5903 5903 5903 5903 5902 5902 5902 5902 5901 5901 5901
5919 5922 5923 5924 5926 5927 5928 5929 5929 5928 5928 5927 5927 5926 5926 5925 5924 5923 5922 5921 5920 5919 5918 5917 5915 5914 5913 5912 5911 5910 5909 5908 5907 5906 5906 5905 5905 5904 5904 5903 5903 5902 5902 5902 5902 5901 5901 5901 5901
5915 5918 5920 5921 5923 5925 5926 5927 5927 5927 5927 5926 5926 5926 5925 5925 5924 5923 5922 5921 5920 5919 5918 5917 5916 5915 5914 5912 5911 5910 5909 5908 5907 5907 5906 5906 5905 5904 5904 5903 5902 5902 5901 5901 5901 5901 5900 5900 5899
5911 5914 5916 5918 5920 5922 5924 5926 5925 5925 5925 5925 5925 5925 5925 5924 5924 5923 5922 5921 5920 5919 5918 5917 5916 5915 5914 5913 5912 5911 5910 5909 5908 5907 5907 5906 5905 5904 5903 5903 5902 5901 5900 5900 5900 5899 5899 5899 5898
5906 5909 5912 5914 5917 5919 5920 5923 5925 5923 5924 5924 5924 5924 5923 5923 5923 5922 5922 5921 5920 5919 5918 5917 5916 5915 5914 5913 5912 5910 5909 5909 5908 5907 5907 5906 5905 5904 5903 5902 5901 5900 5900 5899 5898 5898 5897 5897 5896
5901 5905 5907 5910 5913 5915 5917 5919 5921 5921 5921 5922 5922 5922 5922 5922 5921 5921 5920 5920 5919 5918 5917 5916 5916 5915 5914 5912 5911 5910 5909 5908 5907 5907 5906 5905 5904 5904 5903 5901 5900 5900 5899 5898 5897 5896 5896 5895 5895
5896 5900 5903 5906 5908 5911 5912 5914 5917 5917 5918 5919 5920 5920 5920 5920 5920 5919 5919 5918 5917 5917 5916 5915 5915 5914 5913 5911 5910 5909 5908 5907 5906 5906 5905 5904 5904 5903 5902 5901 5899 5898 5897 5896 5896 5895 5894 5894 5893
5891 5895 5900 5903 5906 5907 5907 5909 5912 5913 5914 5915 5916 5917 5917 5917 5918 5917 5917 5917 5916 5915 5915 5914 5913 5912 5911 5910 5909 5908 5907 5906 5905 5904 5904 5903 5903 5902 5901 5899 5898 5897 5896 5895 5894 5893 5892 5891 5890
5885 5889 5895 5898 5900 5903 5904 5905 5907 5909 5910 5912 5913 5913 5914 5915 5915 5915 5915 5915 5914 5914 5913 5912 5912 5911 5910 5909 5908 5907 5905 5905 5904 5903 5903 5902 5901 5900 5899 5898 5897 5895 5894 5892 5891 5890 5890 5889 5888
5880 5884 5888 5891 5895 5898 5900 5901 5903 5904 5906 5908 5909 5910 5910 5911 5912 5912 5912 5912 5912 5911 5911 5910 5910 5909 5908 5907 5906 5904 5904 5903 5902 5901 5901 5900 5899 5898 5897 5896 5895 5893 5892 5890 5889 5888 5887 5886 5885
5874 5878 5881 5886 5889 5894 5897 5899 5898 5900 5902 5903 5904 5905 5906 5907 5908 5909 5909 5909 5909 5909 5908 5907 5907 5906 5905 5904 5903 5902 5901 5900 5900 5899 5898 5898 5897 5896 5895 5894 5893 5891 5889 5888 5886 5885 5884 5883 5882
5868 5872 5876 5880 5883 5887 5892 5896 5892 5894 5896 5898 5900 5901 5902 5903 5904 5905 5905 5906 5906 5905 5905 5904 5904 5903 5902 5901 5899 5899 5898 5897 5897 5897 5896 5895 5894 5894 5893 5892 5890 5889 5887 5885 5884 5882 5881 5880 5878